Regional Weather Roundup
Issued by NWS

Home | Current Version | Previous Version | Text Only | Print | Product List | Glossary On
Versions: 1 2 3 4 5 6 7 8 9 10 11 12 13 14 15 16 17 18 19 20 21 22 23 24 25 26 27 28 29 30 31 32 33 34 35 36 37 38 39 40 41 42 43 44 45 46 47 48 49 50
000
ASUS43 KDTX 210701
RWRMI
MICHIGAN HOURLY REGIONAL WEATHER ROUNDUP
NATIONAL WEATHER SERVICE DETROIT/PONTIAC MI
200 AM EST SAT JAN 21 2017

NOTE: "FAIR" INDICATES FEW OR NO CLOUDS BELOW 12,000 FEET WITH NO
SIGNIFICANT WEATHER AND/OR OBSTRUCTION TO VISIBILITY.

MIZ047>049-052>055-059>063-066>070-074>076-081>083-210800-
SOUTHEAST LOWER MICHIGAN

CITY           SKY/WX    TMP DP  RH WIND       PRES   REMARKS
ADRIAN         FOG       39  39 100 CALM      29.73S VSB 1/4
ALMA           FOG       34  34 100 CALM      29.72S VSB 1/2
ANN ARBOR      FOG       39  39 100 CALM      29.72F VSB 1/4
BAD AXE        CLOUDY    34  34 100 CALM      29.75S FOG
CARO           FOG       35  35 100 CALM      29.74R VSB 3/4
DETROIT CITY   FOG       40  40 100 SE3       29.75S VSB 1/4
DETROIT        FOG       41  40  96 E3        29.75S VSB 1/4
FLINT          FOG       37  37 100 E5        29.73R VSB 1/2 WCI  33
GROSSE ILE     FOG       37  37  99 CALM      29.74S VSB 1/4
HILLSDALE      FOG       43  43 100 SE7       29.69F VSB 3/4
HOWELL         CLOUDY    40  39  97 SE6       29.71S FOG

CITY           SKY/WX    TMP DP  RH WIND       PRES   REMARKS
JACKSON        CLOUDY    43  41  93 SE6       29.70F FOG
LAMBERTVILLE   CLOUDY    47  46  95 SE3       29.73S FOG
LANSING        FOG       39  36  89 E3        29.71S VSB 1/2
LAPEER         FOG       36  36 100 SE7       29.75R VSB 1/2 WCI  31
MASON          CLOUDY    41  41 100 S3        29.71R FOG
MONROE         FOG       43  43 100 CALM      29.73F VSB 1/4
MT. CLEMENS    FOG       37  37 100 CALM      29.73S VSB 1/2
PONTIAC        FOG       39  37  92 CALM      29.72R VSB 1/4
PORT HOPE        N/A     34  34 100 CALM      29.73S
PORT HURON     FOG       37  37 100 CALM      29.76S VSB 1/4
TRI CITIES     FOG       34  34 100 E3        29.74R VSB 1/4
MIDLAND        CLOUDY    34  33  96 E3        29.72S FOG
TROY           FOG       40  39  95 CALM      29.76S VSB 1/4
SAGINAW HB     FOG       34  32  93 CALM      29.73S VSB 3/4
$$
MIZ043>046-050>051-056>058-064>065-071>073-077>080-210800-
SOUTHWEST LOWER MICHIGAN

CITY           SKY/WX    TMP DP  RH WIND       PRES   REMARKS
BATTLE CREEK   CLOUDY    44  44 100 SE6       29.68F
BENTON HARBOR  CLOUDY    48  45  89 SE8       29.64S
BIG RAPIDS     FOG       33  32  98 CALM      29.69R VSB 1/2
COLDWATER      CLOUDY    45  45 100 SE7       29.68F FOG
FREMONT        FOG       35  35 100 E7        29.67F VSB 1/4 WCI  29
HOLLAND        CLOUDY    41  39  93 E5        29.65F
GRAND RAPIDS   FOG       37  36  96 E6        29.67F VSB 1/4 WCI  32
IONIA          FOG       35  35  99 E5        29.69S VSB 1/2 WCI  31
KALAMAZOO      CLOUDY    45  43  93 SE6       29.66F FOG
LUDINGTON      CLOUDY    34  34 100 E5        29.67F FOG     WCI  30
MARSHALL       CLOUDY    44  44  98 SE5       29.68F FOG
MOUNT PLEASANT CLOUDY    33  33  99 CALM      29.72R FOG
MUSKEGON       FOG       38  37  97 E5        29.66F VSB 1/4 WCI  34
SOUTH HAVEN    CLOUDY    45  45  99 SE5       29.64F FOG
$$
MIZ016>042-210800-
NORTHERN LOWER MICHIGAN

CITY           SKY/WX    TMP DP  RH WIND       PRES   REMARKS
ALPENA         CLOUDY    33  32  96 CALM      29.73S FOG
BEAVER ISLAND  CLOUDY    34  34 100 CALM      29.69F FOG
BELLAIRE       CLOUDY    34  33  97 CALM      29.71S FOG
CADILLAC       FOG       32  31  96 E3        29.67S VSB 1/2
CHARLEVOIX     CLOUDY    34  34 100 SE3       29.72F FOG
FRANKFORT      CLOUDY    34  34  99 SE3       29.68F
GAYLORD        CLOUDY    34  31  88 S3        29.68F FOG
GRAYLING       CLOUDY    33  33  99 CALM      29.71R FOG
HARBOR SPRINGS CLOUDY    33  33 100 CALM      29.70F FOG
HOUGHTON LAKE  FOG       32  31  96 S3        29.71S VSB 3/4
MANISTEE       FOG       33  33 100 E6        29.69S VSB 1   WCI  28
OSCODA         FOG       34  34  98 CALM      29.73R VSB 1/2
PELLSTON       FOG       33  31  92 E3        29.70F VSB 1/4
ROGERS CITY    CLOUDY    34  33  96 CALM      29.74R FOG
TRAVERSE CITY  CLOUDY    36  33  89 CALM      29.69F
$$
MIZ007>008-015-210800-
EASTERN UPPER MICHIGAN

CITY           SKY/WX    TMP DP  RH WIND       PRES   REMARKS
KINROSS        FOG       32  32 100 SE6       29.72R VSB 1/4 WCI  26
MACKINAC ISLAN FOG       32  32 100 SE6       29.71S VSB 1/2 WCI  26
NEWBERRY       FOG       32  31  98 CALM      29.69S VSB 1
S. S. MARIE    CLOUDY    33  32  96 SE5       29.72R WCI  29
MUNISING         N/A     34  33  96 S3        29.67F
$$
MIZ004>006-011>014-085-210800-
CENTRAL UPPER MICHIGAN

CITY           SKY/WX    TMP DP  RH WIND       PRES   REMARKS
MANISTIQUE     CLOUDY    32  32  99 E3        29.68F FOG
ESCANABA       FOG       33  32  96 CALM      29.68S VSB 1/4
SAWYER-GWINN   FOG       32  32  99 S5        29.65F VSB 1/2 WCI  27
$$
MIZ001>003-009>011-084-210800-
WESTERN UPPER MICHIGAN

CITY           SKY/WX    TMP DP  RH WIND       PRES   REMARKS
IRON MOUNTAIN  FOG       32  31  96 CALM      29.63F VSB 3/4
HOUGHTON       FOG       33  32  96 SE6       29.63S VSB 1/4 WCI  28
COPPER HARBOR    N/A     35  35 100 CALM      29.64F
IRONWOOD       LGT RAIN  35  33  92 SE5       29.59F WCI  31
$$

ABBREVIATIONS USED IN REMARKS
   TC - TEMPERATURE IN CELSIUS
  WCI - WIND CHILL INDEX
   HX - HEAT INDEX
  VSB - VISIBILITY





USA.gov is the U.S. government's official web portal to all federal, state and local government web resources and services.